Regional Weather Roundup
Issued by NWS

Home | Current Version | Previous Version | Graphics & Text | Print | Product List | Glossary Off
Versions: 1 2 3 4 5 6 7 8 9 10 11 12 13 14 15 16 17 18 19 20 21 22 23 24 25 26 27 28 29 30 31 32 33 34 35 36 37 38 39 40 41 42 43 44 45 46 47 48 49 50

920
ASUS43 KDTX 230310
RWRMI
MICHIGAN HOURLY REGIONAL WEATHER ROUNDUP
NATIONAL WEATHER SERVICE DETROIT/PONTIAC MI
1000 PM EST THU FEB 22 2018

NOTE: "FAIR" INDICATES FEW OR NO CLOUDS BELOW 12,000 FEET WITH NO
SIGNIFICANT WEATHER AND/OR OBSTRUCTION TO VISIBILITY.

MIZ047>049-052>055-059>063-066>070-074>076-081>083-230400-
SOUTHEAST LOWER MICHIGAN

CITY           SKY/WX    TMP DP  RH WIND       PRES   REMARKS
ADRIAN         CLOUDY    33  29  85 E8        30.48F WCI  26
ALMA           CLOUDY    30  27  88 NE13      30.52S WCI  20
ANN ARBOR      CLOUDY    36  28  73 NE8       30.48F WCI  30
BAD AXE        MOCLDY    29  26  86 NE6       30.55F WCI  23
CARO           MOCLDY    29  25  84 NE5       30.51F WCI  24
DETROIT CITY   CLOUDY    32  27  81 NE12      30.50F WCI  23
DETROIT        CLOUDY    36  29  75 NE9       30.49F WCI  29
FLINT          FAIR      30  25  81 E9        30.52R WCI  22
GROSSE ILE     CLOUDY    34  31  88 E7        30.49F WCI  28
HILLSDALE      CLOUDY    34  28  80 E9G20     30.44F WCI  26
HOWELL         CLOUDY    33  27  77 E9        30.49S WCI  26

CITY           SKY/WX    TMP DP  RH WIND       PRES   REMARKS
JACKSON        CLOUDY    37  28  70 E10       30.45F WCI  30
LAMBERTVILLE   CLOUDY    33  30  88 E8G20     30.47F WCI  26
LANSING        CLOUDY    33  26  75 E8        30.50S WCI  26
LAPEER         FAIR      30  26  84 E5        30.52R WCI  25
MASON          CLOUDY    37  24  59 E7        30.48F WCI  31
MONROE         CLOUDY    35  30  83 E7        30.47F WCI  29
MT. CLEMENS    CLOUDY    32  32  99 NE10      30.50F WCI  23
PONTIAC        CLOUDY    31  25  78 E8        30.49S WCI  23
PORT HOPE        N/A     32  27  81 E15       30.55F WCI  22
PORT HURON     FAIR      30  27  86 E6        30.51F WCI  24
TRI CITIES     MOCLDY    29  23  78 NE16      30.52F WCI  17
MIDLAND        MOCLDY    29  24  80 E13       30.52F WCI  19
TROY           CLOUDY    33  27  77 NE9       30.52F WCI  25
SAGINAW HB     MOCLDY    30  27  86 NE10      30.53F WCI  21
$$
MIZ043>046-050>051-056>058-064>065-071>073-077>080-230400-
SOUTHWEST LOWER MICHIGAN

CITY           SKY/WX    TMP DP  RH WIND       PRES   REMARKS
BATTLE CREEK   CLOUDY    38  27  64 VRB6      30.45F WCI  33
BENTON HARBOR  CLOUDY    40  32  73 E14       30.38F WCI  32
BIG RAPIDS     CLOUDY    31  22  69 E10       30.46F WCI  22
COLDWATER      CLOUDY    37  33  86 E10G16    30.44F WCI  29
FREMONT        CLOUDY    33  18  54 E7        30.43F WCI  26
HOLLAND        CLOUDY    36  25  64 E16       30.42F WCI  26
GRAND RAPIDS   CLOUDY    33  25  72 E16       30.46S WCI  23
IONIA          CLOUDY    32  27  81 E8        30.49R WCI  25
KALAMAZOO      CLOUDY    39  30  70 E12G20    30.44F WCI  32
LUDINGTON      CLOUDY    33  23  65 E14       30.42F WCI  24
MARSHALL       CLOUDY    37  28  70 E12G18    30.44F WCI  29
MOUNT PLEASANT CLOUDY    30  22  72 E9        30.50F WCI  22
MUSKEGON       CLOUDY    35  23  61 E17G23    30.42F WCI  25
SOUTH HAVEN    CLOUDY    39  28  66 E7        30.40F WCI  34
$$
MIZ016>042-230400-
NORTHERN LOWER MICHIGAN

CITY           SKY/WX    TMP DP  RH WIND       PRES   REMARKS
ALPENA         CLOUDY    28  20  71 E7        30.57F WCI  21
BEAVER ISLAND  CLOUDY    29  23  76 SE7       30.54S WCI  22
BELLAIRE       CLOUDY    32  22  66 CALM      30.52F
CADILLAC       CLOUDY    29  18  63 E9        30.45F WCI  21
CHARLEVOIX     CLOUDY    31  23  72 E9        30.54F WCI  23
FRANKFORT      CLOUDY    35  24  64 E5        30.45F WCI  31
GAYLORD        CLOUDY    26  19  74 E7        30.50F WCI  18
GRAYLING       CLOUDY    28  19  67 E10       30.49F WCI  19
HARBOR SPRINGS CLOUDY    28  19  69 E8        30.54F WCI  20
HOUGHTON LAKE  CLOUDY    29  18  63 E9        30.50F WCI  20
MANISTEE       CLOUDY    34  20  56 E10       30.44F WCI  26
OSCODA         CLOUDY    29  22  73 E7        30.56F WCI  22
PELLSTON       CLOUDY    28  20  71 SE7       30.55F WCI  21
ROGERS CITY    CLOUDY    27  19  71 SE6       30.59F WCI  20
TRAVERSE CITY  CLOUDY    34  20  56 E5        30.48F WCI  30
$$
MIZ007>008-015-230400-
EASTERN UPPER MICHIGAN

CITY           SKY/WX    TMP DP  RH WIND       PRES   REMARKS
KINROSS        FAIR      23  17  78 SE10      30.56F WCI  12
MACKINAC ISLAN CLOUDY    27  18  71 E9G16     30.55F WCI  17
NEWBERRY       MOCLDY    24  19  82 SE7       30.54R WCI  16
S. S. MARIE    FAIR      24  14  65 E6        30.57S WCI  17
MUNISING         N/A     27  20  75 S7        30.49F WCI  19
$$
MIZ004>006-011>014-085-230400-
CENTRAL UPPER MICHIGAN

CITY           SKY/WX    TMP DP  RH WIND       PRES   REMARKS
MANISTIQUE     CLOUDY    27  24  89 E7        30.51F WCI  19
ESCANABA       CLOUDY    26  22  84 NE3       30.50F
MENOMINEE      CLOUDY    29  25  85 E12       30.46F WCI  19
SAWYER-GWINN   MOCLDY    25  16  68 S8        30.46F WCI  16
$$
MIZ001>003-009>011-084-230400-
WESTERN UPPER MICHIGAN

CITY           SKY/WX    TMP DP  RH WIND       PRES   REMARKS
IRON MOUNTAIN  CLOUDY    26  19  74 SE8       30.43F WCI  18
HOUGHTON       MOCLDY    25  16  68 SE7       30.39F WCI  17
COPPER HARBOR    N/A     29  21  72 SW16G24   30.42F WCI  17
IRONWOOD       CLOUDY    30  13  49 SE7       30.37F WCI  23
$$

ABBREVIATIONS USED IN REMARKS
   TC - TEMPERATURE IN CELSIUS
  WCI - WIND CHILL INDEX
   HX - HEAT INDEX
  VSB - VISIBILITY





USA.gov is the U.S. government's official web portal to all federal, state and local government web resources and services.